TimeEDT,TemperatureF,Dew PointF,Humidity,Sea Level PressureIn,VisibilityMPH,Wind Direction,Wind SpeedMPH,Gust SpeedMPH,PrecipitationIn,Events,Conditions,WindDirDegrees,DateUTC
12:56 AM,46.4,44.6,93,-9999,40.0,WNW,9.2,-,N/A,,Overcast,300,2012-10-26 04:56:00
1:54 AM,46.4,44.6,93,-9999,40.0,WNW,8.1,-,N/A,,Overcast,290,2012-10-26 05:54:00
2:58 AM,48.2,44.6,87,-9999,40.0,WNW,8.1,-,N/A,,Mostly Cloudy,300,2012-10-26 06:58:00
3:55 AM,46.4,44.6,93,-9999,40.0,West,9.2,-,N/A,,Partly Cloudy,270,2012-10-26 07:55:00
4:55 AM,44.6,44.6,100,-9999,0.0,West,11.5,-,N/A,Fog,Fog,280,2012-10-26 08:55:00
5:54 AM,44.6,44.6,100,-9999,0.1,West,16.1,-,N/A,Fog,Fog,270,2012-10-26 09:54:00
6:52 AM,46.0,45.7,99,-9999,20.0,West,10.4,-,N/A,,Clear,260,2012-10-26 10:52:00
7:53 AM,46.4,44.6,93,-9999,20.0,West,5.8,-,N/A,,Partly Cloudy,260,2012-10-26 11:53:00
8:58 AM,46.0,45.7,99,-9999,35.0,West,10.4,-,N/A,,Partly Cloudy,270,2012-10-26 12:58:00
9:55 AM,48.2,46.4,93,-9999,35.0,West,4.6,-,N/A,,Clear,270,2012-10-26 13:55:00
10:51 AM,50.0,44.6,82,-9999,50.0,WNW,3.5,-,N/A,,Partly Cloudy,290,2012-10-26 14:51:00
11:53 AM,50.0,44.6,82,-9999,50.0,WNW,3.5,-,N/A,,Partly Cloudy,290,2012-10-26 15:53:00
12:53 PM,51.8,44.6,76,-9999,50.0,West,5.8,-,N/A,,Mostly Cloudy,260,2012-10-26 16:53:00
1:50 PM,50.0,48.2,94,-9999,50.0,WSW,6.9,-,N/A,,Mostly Cloudy,240,2012-10-26 17:50:00
2:51 PM,51.8,46.4,82,-9999,40.0,WSW,4.6,-,N/A,,Scattered Clouds,240,2012-10-26 18:51:00
3:51 PM,50.0,44.6,82,-9999,40.0,WSW,9.2,-,N/A,,Scattered Clouds,250,2012-10-26 19:51:00
4:51 PM,50.0,44.6,82,-9999,40.0,WSW,4.6,-,N/A,,Partly Cloudy,240,2012-10-26 20:51:00
5:50 PM,48.2,42.8,82,-9999,30.0,SSE,4.6,-,N/A,,Partly Cloudy,160,2012-10-26 21:50:00
6:54 PM,48.2,42.8,82,-9999,30.0,SSW,1.2,-,N/A,,Partly Cloudy,200,2012-10-26 22:54:00
7:50 PM,46.4,42.8,87,-9999,40.0,SSW,3.5,-,N/A,,Partly Cloudy,210,2012-10-26 23:50:00
8:54 PM,46.4,41.0,81,-9999,40.0,SW,3.5,-,N/A,,Scattered Clouds,220,2012-10-27 00:54:00
9:53 PM,46.4,41.0,81,-9999,40.0,South,5.8,-,N/A,,Scattered Clouds,180,2012-10-27 01:53:00
10:55 PM,46.4,41.0,81,-9999,40.0,SSE,6.9,-,N/A,,Partly Cloudy,150,2012-10-27 02:55:00
11:57 PM,46.4,41.0,81,-9999,40.0,SSW,5.8,-,N/A,,Partly Cloudy,200,2012-10-27 03:57:00